Location: Ebendorf
(52.1827°N, 11.5706°E)
Time: 12:49:08
(UTC+00:00)

CZ-4B R/B - Pass Details

Date: 15 May 2021
Orbit: 703 x 802 km, 98.9° (Epoch: 20 June)

Event Time Altitude Azimuth Distance (km) Brightness Sun altitude
Rises 02:25:03 0° 17° (NNE) 3,184 7.9 -7.3°
Reaches altitude 10° 02:27:20 10° 19° (NNE) 2,271 7.1 -7.0°
Maximum altitude 02:32:20 73° 105° (ESE) 800 3.8 -6.5°
Drops below altitude 10° 02:37:26 10° 190° (S) 2,318 5.5 -5.9°
Sets 02:39:46 0° 192° (SSW) 3,254 6.3 -5.6°
